Regional Weather Roundup
Issued by NWS Goodland, KS

Home | Current Version | Previous Version | Graphics & Text | Print | Product List | Glossary On
Versions: 1 2 3 4 5 6 7 8 9 10 11 12 13 14 15 16 17 18 19 20 21 22 23 24 25 26 27 28 29 30 31 32 33 34 35 36 37 38 39 40 41 42 43 44 45 46 47 48 49 50
886
ASUS43 KGLD 180308
RWRGLD

GOODLAND FORECAST AREA HOURLY WEATHER ROUNDUP
NATIONAL WEATHER SERVICE GOODLAND KS
800 PM MST FRI NOV 17 2017

...OFFICIAL OBSERVATIONS...

CITY           SKY/WX    TMP DP  RH WIND       PRES   REMARKS
GOODLAND KS    CLEAR     42  31  64 N20G28    29.65R
HILL CITY KS   CLEAR     47  35  63 N23G29    29.56S
IMPERIAL NEB   NOT AVBL
MCCOOK NEB     PTCLDY    46  32  58 N15       29.65R
AKRON CO       LGT RAIN  39  37  92 N14       29.73S
BURLINGTON CO  PTCLDY    42  31  64 N12       29.68R
LIMON CO       CLOUDY    41  36  82 N28G39    29.73R
$$

...UNOFFICIAL OBSERVATIONS...

CITY           SKY/WX    TMP DP  RH WIND       PRES   REMARKS
COLBY KS       CLEAR     43  34  70 N14       29.66R
LENORA KS        N/A     45  32  60 N9          N/A
NORTON KS      MOCLDY    41  28  60 N9        29.59
SHARON SPRINGS   N/A     45  33  62 N15G23      N/A
TRENTON NEB      N/A     43  32  65 N8          N/A
KIT CARSON CO    N/A     44  31  60 MISG        N/A
YUMA CO        RAIN      41  36  81 N10       29.72R
$$




USA.gov is the U.S. government's official web portal to all federal, state and local government web resources and services.